Location: Observatoire
(46.1952°N, 5.3391°E)
Time: 07:10:19
(UTC+01:00)

Altair - Pass Details

Date: 24 February 2026
Orbit: 1502 x 1682 km, 47.2° (Epoch: 5 March)

Event Time Altitude Azimuth Distance (km) Brightness Sun altitude
Rises 01:27:41 0° 186° (S) 4,631 - -52.5°
Reaches altitude 10° 01:31:45 10° 170° (S) 3,644 - -52.4°
Maximum altitude 01:37:47 20° 128° (SE) 2,942 - -52.0°
Exits shadow 01:43:39 11° 87° (E) 3,627 9.6 -51.7°
Drops below altitude 10° 01:43:51 10° 86° (E) 3,669 9.6 -51.7°
Sets 01:47:55 0° 71° (ENE) 4,672 10.4 -51.4°
